Location: Buckland
(65.9785°N, 161.1281°W)
Time: 03:27:02
(UTC+00:00)

Transit 4A - Pass Details

Date: 03 December 2020
Orbit: 864 x 980 km, 66.8° (Epoch: 26 January)

Event Time Altitude Azimuth Distance (km) Brightness Sun altitude
Rises 22:23:24 0° 275° (W) 3,687 10.9 1.7°
Reaches altitude 10° 22:25:59 10° 277° (W) 2,742 10.3 1.7°
Maximum altitude 22:32:27 84° 6° (N) 993 8.1 1.8°
Drops below altitude 10° 22:38:51 10° 95° (E) 2,714 10.4 1.8°
Sets 22:41:23 0° 97° (E) 3,648 11.1 1.8°
